Location: Dumpton Point
(51.3500°N, 1.4433°E)
Time: 10:38:38
(UTC+00:00)

Altair - Visible Passes

Search period start: 27 September 2022 00:00
Search period end: 07 October 2022 00:00
Orbit: 1501 x 1682 km, 47.2° (Epoch: 26 September)

Date Brightness Start Highest point End Pass type
(mag) Time Alt. Az. Time Alt. Az. Time Alt. Az.
27 Sep 9.5 05:03:25 10° S 05:10:42 24° SE 05:18:07 10° E visible
28 Sep 9.5 04:38:44 10° S 04:45:39 22° SE 04:52:43 10° E visible
29 Sep 9.5 04:14:07 10° S 04:20:38 20° SE 04:27:16 10° E visible
30 Sep 9.5 03:49:33 10° SSE 03:55:37 19° SE 04:01:46 10° E visible
01 Oct 9.5 03:25:05 10° SSE 03:30:36 17° SE 03:36:12 10° E visible
02 Oct 9.5 03:00:44 10° SSE 03:05:36 15° SE 03:10:32 10° E visible
02 Oct 8.6 04:59:16 10° SSW 05:08:11 42° SE 05:17:23 10° E visible
03 Oct 9.5 02:36:32 10° SSE 02:40:37 13° ESE 02:44:43 10° E visible
03 Oct 8.6 04:34:18 10° SSW 04:43:05 40° SE 04:52:08 10° E visible
04 Oct 9.5 02:12:38 10° SE 02:15:38 12° ESE 02:18:39 10° ESE visible
04 Oct 8.6 04:09:23 10° SSW 04:17:59 38° SE 04:26:52 10° E visible
05 Oct 9.5 01:49:45 10° SE 01:50:40 10° ESE 01:51:35 10° ESE visible
05 Oct 8.6 03:45:11 12° SSW 03:52:54 35° SE 04:01:35 10° E visible
06 Oct 8.6 03:21:46 17° S 03:27:49 33° SE 03:36:18 10° E visible
06 Oct 8.0 05:21:48 10° WSW 05:31:22 62° SSE 05:41:16 10° E visible
